Location: Saint Louis
(38.6272°N, 90.1978°W)
Time: 14:17:00
(UTC-05:00)

ISS - Pass Details

Date: 16 September 2013
Orbit: 401 x 404 km, 51.6° (Epoch: 23 July)

Event Time Altitude Azimuth Distance (km) Brightness Sun altitude
Rises 13:27:28 0° 300° (WNW) 2,320 0.4 53.4°
Reaches altitude 10° 13:29:42 10° 289° (WNW) 1,455 -0.4 53.3°
Maximum altitude 13:32:35 29° 226° (SW) 759 -0.8 53.2°
Drops below altitude 10° 13:35:27 10° 164° (SSE) 1,443 0.1 53.0°
Enters shadow 14:06:32 -62° 131° (SE) 11,746 3.7 50.7°
Exits shadow 14:41:26 -49° 327° (NNW) 10,200 3.3 46.8°
